Find Starlink 31463

NORAD ID: 59296 Int'l Des: 2024-056 Owner: SPXS Country: US Constellation: starlink operational
LEOCIRCULAR

实时位置

正在加载3D地球...

关于 Starlink 31463

正在加载描述...

即将过境

Passes for default location (London). Set your location on the main map for personalized predictions.

高度历史

Loading altitude history...

两行轨道根数

1 59296U 24056A 26132.66122669 .00000099 00000-0 13117-4 0 9995
2 59296 43.0027 225.4863 0001468 259.8086 100.2600 15.27582860120989
Epoch: May 12, 2026 • Age: 29 hours

当前状态

高度 482.5 km
速度 7.63 km/s
星下点 3.50°N, 149.87°W
发射日期 Mar 24, 2024
运行时间 2.1 years
类型 internet

技术详情

分类 Payload
质量 730.00 kg
干质量 700.00 kg
总质量 730.00 kg
长度 0.30 m
直径 4.10 m
跨度 29.00 m
形状 Box + pan
制造商 SPXS
平台类型 Starlink V2M
阶段状态 In Orbit
所有者/国家 SPXS/US

Most Searched